Regional Weather Roundup
Issued by NWS Albany, NY

Home | Current Version | Previous Version | Text Only | Print | Product List | Glossary On
Versions: 1 2 3 4 5 6 7 8 9 10 11 12 13 14 15 16 17 18 19 20 21 22 23 24 25 26 27 28 29 30 31 32 33 34 35 36 37 38 39 40 41 42 43 44 45 46 47 48 49 50
000
ASUS41 KALY 172110
RWRALY

NEW YORK STATE HOURLY WEATHER ROUNDUP
NATIONAL WEATHER SERVICE ALBANY NY
500 PM EDT WED SEP 17 2014

NOTE: "FAIR" INDICATES FEW OR NO CLOUDS BELOW 12,000 FEET WITH NO
SIGNIFICANT WEATHER AND/OR NO OBSTRUCTIONS TO VISIBILITY.

NYZ032-033-038>043-046>054-057>066-NYZ062>081-172200-
EAST


CITY           SKY/WX    TMP DP  RH WIND       PRES   REMARKS
ALBANY         PTSUNNY   65  45  48 NW8       29.97S
GLENS FALLS    PTSUNNY   67  43  41 W6        29.94S
POUGHKEEPSIE   SUNNY     68  42  38 W5        29.95F
NEWBURGH       MOSUNNY   68  45  42 NW9       29.98F
MONTGOMERY     PTSUNNY   70  45  40 NW7       29.96S
WHITE PLAINS   MOSUNNY   70  41  34 NW5       29.96S
ISLIP          MOSUNNY   68  47  46 SW7       29.96R
NEW YORK CITY  MOSUNNY   72  41  32 W6        29.95S
CENTRAL PARK   SUNNY     70  42  36 VRB3      29.98S
$$

NYZ005>009-017-018-044>046-055-056-172200-
CENTRAL


CITY           SKY/WX    TMP DP  RH WIND       PRES   REMARKS
FULTON         MOSUNNY   67  45  45 CALM      29.96S
SYRACUSE       PTSUNNY   68  44  42 S6        29.96S
ROME           SUNNY     65  43  44 W9        29.98S
ELMIRA         PTSUNNY   67  45  45 MISG      29.96F
BINGHAMTON     PTSUNNY   63  43  48 NW7       29.99S
MONTICELLO     PTSUNNY   64  43  45 SW8       30.00S
$$

NYZ026>034-041>043-172200-
NORTH


CITY           SKY/WX    TMP DP  RH WIND       PRES   REMARKS
WATERTOWN      SUNNY     65  46  50 W10G18    29.96R
FORT DRUM      NOT AVBL
MASSENA        PTSUNNY   64  51  62 SW15      29.92S
SARANAC LAKE   CLOUDY    57  44  62 SW7       29.94S
PLATTSBURGH    CLOUDY    63  47  55 S5        29.91F
$$

NYZ001>004-010>016-019>021-172200-
WEST


CITY           SKY/WX    TMP DP  RH WIND       PRES   REMARKS
NIAGARA FALLS  PTSUNNY   66  49  54 SW14      29.96S
BUFFALO        MOSUNNY   66  47  50 SW14G22   29.97S
DUNKIRK        SUNNY     65  49  56 W16G26    29.99S
JAMESTOWN      CLOUDY    61  46  59 NW7       29.99F
WELLSVILLE     MOSUNNY   61  42  49 W5        30.00F
ROCHESTER      PTSUNNY   69  42  37 W10       29.96S
PENN YAN       MOSUNNY   68  45  43 W5        29.97F
$$

             KEY
       WCI = WIND CHILL INDEX
       VSB = VISIBILITY
       HX  = HEAT INDEX
$$


USA.gov is the U.S. government's official web portal to all federal, state and local government web resources and services.